Regional Weather Roundup
Issued by NWS Northern Indiana

Home | Current Version | Previous Version | Graphics & Text | Print | Product List | Glossary On
Versions: 1 2 3 4 5 6 7 8 9 10 11 12 13 14 15 16 17 18 19 20 21 22 23 24 25 26 27 28 29 30 31 32 33 34 35 36 37 38 39 40 41 42 43 44 45 46 47 48 49 50
000
ASUS43 KIWX 031800
RWRIWX

KIWX WEATHER ROUNDUP
NATIONAL WEATHER SERVICE NORTHERN INDIANA
100 PM EST SAT DEC 03 2016

NOTE: "FAIR" INDICATES FEW OR NO CLOUDS BELOW 12,000 FEET WITH NO
SIGNIFICANT WEATHER AND/OR OBSTRUCTIONS TO VISIBILITY.

* THESE STATIONS ARE NOT UNDER NWS QUALITY CONTROL. THEY ALSO MAY NOT
  REPORT WEATHER SUCH AS PRECIPITATION OR FOG.

INZ001>027-031900-
NORTHERN INDIANA

CITY           SKY/WX    TMP DP  RH WIND       PRES   REMARKS
GARY*          CLOUDY    36  23  60 W8        30.37R
SOUTH BEND     CLOUDY    35  25  66 SW7       30.33R WCI  29
6HR MIN TEMP:  33; 6HR MAX TEMP:  35;

ELKHART*       CLOUDY    36  27  69 SW6       30.31S
GOSHEN         CLOUDY    36  26  67 SW8       30.33R
6HR MIN TEMP:  34; 6HR MAX TEMP:  37;

ANGOLA*        CLOUDY    37  27  65 W6        30.30R
FORT WAYNE     CLOUDY    37  25  61 W6        30.31F
6HR MIN TEMP:  35; 6HR MAX TEMP:  37;

PERU/GRISSOM   CLOUDY    36  26  66 SW5       30.32F
6HR MIN TEMP:  34; 6HR MAX TEMP:  36;


$$
INZ028>050-031900-
CENTRAL INDIANA

CITY           SKY/WX    TMP DP  RH WIND       PRES   REMARKS
LAFAYETTE      CLOUDY    36  27  69 W5        30.36R
6HR MIN TEMP:  31; 6HR MAX TEMP:  36;

KOKOMO*        CLOUDY    37  27  67 SW5       30.34F
6HR MIN TEMP:  35; 6HR MAX TEMP:  37;

INDIANAPOLIS   CLOUDY    38  27  64 W9        30.34F
6HR MIN TEMP:  35; 6HR MAX TEMP:  39;


$$
MIZ043>046-050>051-056>058-064>065-071>073-077>080-031900-
SOUTHWEST LOWER MICHIGAN

CITY           SKY/WX    TMP DP  RH WIND       PRES   REMARKS
BATTLE CREEK   CLOUDY    36  29  75 SW7       30.28S
6HR MIN TEMP:  35; 6HR MAX TEMP:  36;

BENTON HARBOR  CLOUDY    37  24  59 NW5       30.31S
6HR MIN TEMP:  36; 6HR MAX TEMP:  38;

COLDWATER*     CLOUDY    37  26  65 W5        30.28F
6HR MIN TEMP:  34; 6HR MAX TEMP:  37;

HILLSDALE*     CLOUDY    34  28  80 W6        30.26S WCI  29
HOLLAND        CLOUDY    37  28  70 W5        30.29S
6HR MIN TEMP:  37; 6HR MAX TEMP:  37;

GRAND RAPIDS   CLOUDY    36  29  75 CALM      30.28F
6HR MIN TEMP:  35; 6HR MAX TEMP:  36; 6HR PCP: TRACE;

KALAMAZOO      CLOUDY    37  27  67 W8        30.28F
6HR MIN TEMP:  36; 6HR MAX TEMP:  37;

STURGIS*       CLOUDY    37  27  68 W5        30.29S
6HR MIN TEMP:  35; 6HR MAX TEMP:  37;

THREE RIVERS*  CLOUDY    38  29  70 W6        30.30S
6HR MIN TEMP:  36; 6HR MAX TEMP:  38;


$$
OHZ001>008-015>018-024>025-031900-
NORTHWEST OHIO

CITY           SKY/WX    TMP DP  RH WIND       PRES   REMARKS
DEFIANCE       CLOUDY    39  24  55 SW8       30.33R
6HR MIN TEMP:  35; 6HR MAX TEMP:  40;

FINDLAY        CLOUDY    39  27  62 SW8       30.30R
6HR MIN TEMP:  34; 6HR MAX TEMP:  39;

TOLEDO EXPRESS CLOUDY    37  29  72 W6        30.29S
6HR MIN TEMP:  35; 6HR MAX TEMP:  37;

TOLEDO METCALF CLOUDY    39  30  70 W8        30.30F
6HR MIN TEMP:  36; 6HR MAX TEMP:  39;

LIMA           CLOUDY    36  28  73 W12       30.30F
6HR MIN TEMP:  35; 6HR MAX TEMP:  37;


$$
AND FOR LAKE MICHIGAN COASTAL AND OPEN LAKE BUOY OBSERVATIONS

STATION/POSITION TEMP    WIND        PRES    VSBY  WAVE
                 AIR SEA DIR/SP/G                  HT/PER
                 (F)     (DEG/KT/KT) (MB)    (MI)  (FT/S)
CALUMET HARBOR    34     240/  6/  7 1026.7F
MICHIGAN CITY     35     250/  9/ 10   N/A
BURNS HARBOR      35     260/  8/ 11 1028.1R
SAINT JOSEPH      37     270/  6/  9 1026.8
SOUTH LAKE BUOY   34 49  290/  6/  8 1026.7          1/ 3

$$
&&




USA.gov is the U.S. government's official web portal to all federal, state and local government web resources and services.